カタログに戻る

SAUDISAT 4

運用中アマチュア無線SSO
NORAD 40016·PAYLOAD·🇸🇦 Saudi Arabia

打ち上げ Jun 19, 2014 から Dombarovsky

Loading…

次のパス (今後24時間)

TLE

最新Source: Space-Track

元期: Sep 14, 2026, 04:25 UTC

1 40016U 14033G   26257.18428443  .00000557  00000-0  79863-4 0  9992
2 40016  97.7718  40.3153 0045580 142.3618 218.0799 14.79638903659236

AllMySatでSAUDISAT 4をリアルタイム追跡

Download on the App Store